Location: Lanoux
(43.1180°N, 1.4255°E)
Time: 23:29:55
(UTC+00:00)

Cosmos 2263 Rocket - Pass Details

Date: 13 December 2025
Orbit: 821 x 849 km, 71.0° (Epoch: 19 January)

Event Time Altitude Azimuth Distance (km) Brightness Sun altitude
Rises 17:46:43 0° 335° (NNW) 3,409 5.5 -15.3°
Reaches altitude 10° 17:49:10 10° 336° (NNW) 2,474 4.7 -15.7°
Maximum altitude 17:54:53 86° 66° (ENE) 856 2.1 -16.7°
Drops below altitude 10° 18:00:34 10° 155° (SSE) 2,466 4.5 -17.7°
Sets 18:03:00 0° 156° (SSE) 3,398 5.3 -18.1°
